Regional Weather Roundup
Issued by NWS Jackson, KY

Home | Current Version | Previous Version | Text Only | Print | Product List | Glossary On
Versions: 1 2 3 4 5 6 7 8 9 10 11 12 13 14 15 16 17 18 19 20 21 22 23 24 25 26 27 28 29 30 31 32 33 34 35 36 37 38 39 40 41 42 43 44 45 46 47 48 49 50
000
ASUS43 KJKL 300519
RWRJKL

EAST KENTUCKY HOURLY WEATHER ROUNDUP
NATIONAL WEATHER SERVICE JACKSON KY
100 AM EDT WED JUL 30 2014

NOTE: "FAIR" INDICATES FEW OR NO CLOUDS BELOW 12,000 FEET WITH
NO SIGNIFICANT WEATHER AND/OR OBSTRUCTIONS TO VISIBILITY.

* THESE REPORTS ARE NOT UNDER NWS QUALITY CONTROL AND MAY NOT
  REPORT WEATHER SUCH AS PRECIPITATION AND FOG.

KYZ079-080-083-085-087-088-110-112-115-119-120-300600
...EASTERN KENTUCKY...

CITY           SKY/WX    TMP DP  RH WIND       PRES   REMARKS
JACKSON        CLEAR     59  54  83 CALM      30.11R
LONDON         CLEAR     57  54  89 CALM      30.12S
SOMERSET*      CLEAR     55  55 100 CALM      30.12S
MONTICELLO*    CLEAR     55  54  97 CALM      30.13R
WILLIAMSBURG*    N/A     54  54 100 CALM      30.12S
MIDDLESBORO*   CLEAR     56  54  94 CALM      30.13R
HARLAN APT*    CLOUDY    55  54  94 MISG      30.13S VSB<1/4
BLACK MTN*       N/A     50  50 100 N7          N/A
PIKEVILLE APT* CLEAR     57  55  94 S3        30.11S
BIG SANDY*     CLEAR     57  56  97 CALM      30.10S
MOREHEAD APT*    N/A     55  55 100 S5        30.11S FOG
ASHLAND*       PTCLDY    55  52  88 S3        30.06S
$$

KYZ035-036-041-042-044-050-067-078-099-300600
...CENTRAL KENTUCKY...

CITY           SKY/WX    TMP DP  RH WIND       PRES   REMARKS
MT STERLING*   PTCLDY    54  54 100 SW6       30.10S
FLEMING/MASON* CLEAR     59  54  82 S7        30.08S
DANVILLE*      CLEAR     55  54  94 CALM      30.11S
RICHMOND*      CLEAR     57  54  88 CALM      30.10R
LEXINGTON      CLEAR     58  54  86 S5        30.09S
FRANKFORT      MOCLDY    59  57  93 CALM      30.08R
$$

KYZ091>093-OHZ055-061-077-WVZ005-015-034-035-042-300600
...SOUTHERN OHIO/WEST VIRGINIA...

CITY           SKY/WX    TMP DP  RH WIND       PRES   REMARKS
COVINGTON      PTCLDY    62  56  80 SW5       30.06S
COLUMBUS       MOCLDY    64  53  67 SE5       30.03S
DAYTON         PTCLDY    62  57  83 SW8       30.04F
WILMINGTON     CLEAR     58  53  84 SW3       30.05S
HUNTINGTON     FOG       55  55 100 CALM      30.07F VSB 3/4
CHARLESTON     PTCLDY    58  58 100 CALM      30.08S
PINEVILLE*     CLEAR     59  59 100 MISG      30.15F
BECKLEY        CLEAR     54  50  86 CALM      30.12F
BLUEFIELD      CLEAR     54  48  80 W6        30.13F
$$

VAZ002-007-008-TNZ017-027-036-066-071-300600
...SOUTHWEST VIRGINIA/EAST TENNESSEE...

CITY           SKY/WX    TMP DP  RH WIND       PRES   REMARKS
WISE*          CLEAR     52  52 100 CALM      30.15S
JONESVILLE*      N/A     54  54 100 CALM      30.14S
ABINGDON*      CLEAR     55  53  91 CALM      30.11F
BRISTOL        PTCLDY    55  50  83 CALM      30.11S
KNOXVILLE      CLEAR     59  55  87 N5        30.08S
OAK RIDGE      CLEAR     59  55  87 CALM      30.11S
CROSSVILLE     CLEAR     57  53  86 CALM      30.13S
NASHVILLE      CLEAR     64  55  72 CALM      30.10S
$$

...KEY TO REMARKS...
VSB - VISIBILITY IN MILES
WCI - WIND CHILL INDEX
HX  - HEAT INDEX

$$


USA.gov is the U.S. government's official web portal to all federal, state and local government web resources and services.